EST,Max TemperatureF,Mean TemperatureF,Min TemperatureF,Max Dew PointF,MeanDew PointF,Min DewpointF,Max Humidity, Mean Humidity, Min Humidity, Max Sea Level PressureIn, Mean Sea Level PressureIn, Min Sea Level PressureIn, Max VisibilityMiles, Mean VisibilityMiles, Min VisibilityMiles, Max Wind SpeedMPH, Mean Wind SpeedMPH, Max Gust SpeedMPH,PrecipitationIn, CloudCover, Events, WindDirDegrees
2012-12-1,79,68,56,64,60,55,93,74,54,30.23,30.20,30.16,10,10,5,20,8,28,0.05,5,Rain,73
2012-12-2,79,72,65,66,64,60,93,74,54,30.27,30.23,30.20,10,8,1,17,8,22,0.16,5,Rain,78
2012-12-3,78,68,58,63,58,55,100,74,47,30.28,30.23,30.20,10,10,9,15,6,17,0.00,1,,64
2012-12-4,78,66,54,63,56,52,90,65,40,30.27,30.22,30.18,10,10,10,18,8,24,T,3,,77
2012-12-5,79,68,57,65,59,53,100,73,45,30.17,30.11,30.05,10,10,10,15,4,18,0.07,3,,53
2012-12-6,79,69,58,68,65,58,100,86,71,30.04,29.99,29.94,10,9,1,15,5,20,0.06,3,Rain-Thunderstorm,27
2012-12-7,78,69,59,69,64,59,100,82,64,30.02,29.97,29.91,10,9,2,18,4,21,T,2,Rain-Thunderstorm,79
2012-12-8,79,71,62,70,66,60,100,87,74,30.07,30.02,29.98,10,6,0,24,5,29,0.53,5,Fog-Rain,53
2012-12-9,81,73,65,72,68,64,100,87,74,30.10,30.04,30.01,10,7,1,13,3,16,0.27,3,Rain,127
2012-12-10,86,76,65,74,70,64,100,83,65,30.03,29.98,29.89,10,6,0,16,8,22,1.51,5,Fog-Rain-Thunderstorm,182
2012-12-11,79,76,72,73,72,66,94,87,79,30.04,29.96,29.91,10,10,2,15,6,21,0.18,4,Rain-Thunderstorm,209
2012-12-12,82,76,69,72,70,68,100,85,69,30.10,30.05,30.01,10,9,2,15,5,20,0.28,5,Rain-Thunderstorm,219
2012-12-13,73,67,60,72,65,57,100,88,76,30.15,30.10,30.02,10,9,5,21,11,28,T,8,Rain,321
2012-12-14,77,69,60,64,62,57,93,75,56,30.17,30.12,30.09,10,8,2,21,10,25,0.17,5,Rain,335
2012-12-15,79,70,60,67,62,59,100,76,52,30.15,30.10,30.06,10,5,0,14,6,18,0.03,6,Fog-Rain,332
2012-12-16,78,70,61,72,65,60,100,87,73,30.08,30.03,29.98,10,10,4,18,5,22,0.02,6,Rain,152
2012-12-17,81,73,65,67,65,64,100,79,58,29.99,29.95,29.89,10,10,7,14,5,18,0.00,4,,222
2012-12-18,84,72,59,69,65,54,100,79,58,30.03,29.95,29.90,10,7,1,18,8,22,0.00,4,,254
2012-12-19,79,66,52,61,55,49,93,69,45,30.11,30.07,30.02,10,10,10,9,3,14,0.00,0,,102
2012-12-20,81,68,55,66,60,54,93,72,51,30.12,30.04,29.96,10,9,2,21,7,25,0.00,1,,166
2012-12-21,72,59,46,66,44,23,90,55,20,30.19,30.05,29.93,10,10,9,24,13,33,T,3,,288
2012-12-22,66,52,38,34,26,18,70,43,16,30.27,30.22,30.18,10,10,10,17,8,21,0.00,0,,310
2012-12-23,70,55,39,54,44,30,86,64,42,30.27,30.21,30.17,10,10,10,8,3,13,0.00,0,,337
2012-12-24,76,64,52,58,54,50,96,71,46,30.14,30.08,29.99,10,10,10,16,3,21,T,2,,216
2012-12-25,77,64,51,62,57,50,100,77,54,30.06,30.00,29.93,10,10,9,12,4,15,0.00,0,,161
2012-12-26,84,70,56,68,62,51,90,73,55,29.99,29.90,29.79,10,10,2,29,12,36,0.06,3,Rain,223
2012-12-27,66,54,41,49,44,40,93,68,43,30.10,30.05,29.99,10,10,7,15,5,18,0.00,0,,320
2012-12-28,74,58,41,70,57,40,93,73,53,30.11,30.04,29.98,10,10,6,15,5,20,0.12,3,Rain,133
2012-12-29,85,70,54,72,67,46,93,78,63,30.13,29.97,29.90,10,10,9,23,13,32,0.00,5,,226
2012-12-30,65,54,43,52,45,36,86,73,60,30.32,30.27,30.14,10,10,10,20,12,28,0.00,4,,348
2012-12-31,74,64,53,56,53,50,93,71,49,30.34,30.28,30.23,10,10,6,17,8,24,0.00,5,,108